EW9136 Weather Reports


Display with metric or nautical units.
time (UTC)temp
F
wind
direction
speed
MPH
gust
MPH
rain 1hr
in
rain 24hr
in
rain mn
in
humidity
%
barometer
mb
20260503010021 52 63 3.0 8.0 0.01 0.02 0.01 90 1010.3
20260503004526 52 54 3.0 13.0 0.01 0.02 0.01 88 1010.4
20260503003015 52 114 6.0 10.0 0.02 0.02 0.01 89 1010.4
20260503001514 52 109 4.0 12.0 0.02 0.02 0.01 90 1010.7
20260503000011 52 136 5.0 13.0 0.01 0.02 0.02 90 1010.8
20260502234509 52 101 2.0 9.0 0.01 0.02 0.02 89 1011.4
20260502233010 52 154 6.0 11.0 0.01 0.01 0.01 89 1011.5
20260502231504 52 143 7.0 12.0 0.01 0.01 0.01 89 1011.7
20260502230002 52 160 6.0 13.0 0.01 0.01 0.01 89 1012.0
20260502224502 52 111 8.0 16.0 0.00 0.00 0.00 88 1012.2
20260502223059 53 126 5.0 14.0 0.00 0.00 0.00 86 1012.3
20260502221559 53 171 0.0 5.0 0.00 0.00 0.00 87 1012.2
20260502220104 52 92 0.0 9.0 0.00 0.00 0.00 88 1012.0
20260502214557 52 42 5.0 10.0 0.00 0.00 0.00 88 1012.2
20260502213118 52 40 3.0 8.0 0.00 0.00 0.00 88 1012.2
20260502211629 52 340 4.0 6.0 0.00 0.00 0.00 88 1012.3
20260502210108 53 42 0.0 4.0 0.00 0.00 0.00 87 1012.4
20260502204555 53 51 5.0 7.0 0.00 0.00 0.00 87 1012.3
20260502203100 53 54 3.0 6.0 0.00 0.00 0.00 86 1012.3
20260502201558 54 53 4.0 7.0 0.00 0.00 0.00 85 1012.2
20260502200153 54 53 3.0 6.0 0.00 0.00 0.00 85 1012.3
20260502194603 54 65 2.0 5.0 0.00 0.00 0.00 85 1012.3
20260502193052 54 46 3.0 6.0 0.00 0.00 0.00 85 1012.2
20260502191554 55 50 4.0 8.0 0.00 0.00 0.00 84 1012.1
20260502190050 56 39 5.0 8.0 0.00 0.00 0.00 82 1012.1
20260502184555 56 54 4.0 9.0 0.00 0.00 0.00 82 1012.2
20260502183057 58 46 7.0 10.0 0.00 0.00 0.00 80 1012.2
20260502181547 60 59 5.0 9.0 0.00 0.00 0.00 77 1012.2
20260502163049 65 56 6.0 11.0 0.00 0.00 0.00 68 1012.7
20260502161543 67 287 0.0 6.0 0.00 0.00 0.00 64 1012.6
20260502151538 67 247 7.0 12.0 0.00 0.00 0.00 59 1013.1
20260502123040 66 252 5.0 11.0 0.00 0.00 0.00 64 1014.3
20260502121537 66 308 5.0 11.0 0.00 0.00 0.00 65 1014.3
20260502114530 65 227 6.0 11.0 0.00 0.00 0.00 67 1014.4
20260502113028 64 319 6.0 11.0 0.00 0.00 0.00 69 1014.4
20260502111524 64 229 5.0 12.0 0.00 0.00 0.00 71 1014.7
20260502110021 63 287 8.0 14.0 0.00 0.00 0.00 71 1014.8
20260502104523 63 254 5.0 9.0 0.00 0.00 0.00 73 1014.7
20260502103016 62 284 6.0 15.0 0.00 0.00 0.00 71 1014.8
20260502101532 61 318 6.0 11.0 0.00 0.00 0.00 74 1014.8
20260502091505 58 244 5.0 13.0 0.00 0.00 0.00 78 1015.4
20260502080108 57 231 5.0 12.0 0.00 0.00 0.00 79 1015.1
20260502070058 52 250 5.0 13.0 0.00 0.00 0.00 85 1015.3
20260502064551 52 239 5.0 15.0 0.00 0.00 0.00 85 1015.3
20260502063053 52 242 6.0 12.0 0.00 0.00 0.00 86 1015.3
20260502061544 52 253 4.0 12.0 0.00 0.00 0.00 85 1015.3
20260502060042 52 235 5.0 9.0 0.00 0.00 0.00 85 1015.4
20260502054542 52 227 5.0 8.0 0.00 0.00 0.00 86 1015.4
20260502053037 51 214 3.0 8.0 0.00 0.00 0.00 85 1015.4
20260502051541 52 206 2.0 12.0 0.00 0.00 0.00 85 1015.4
20260502050034 52 248 3.0 10.0 0.00 0.00 0.00 85 1015.3
20260502044531 52 262 3.0 7.0 0.00 0.00 0.00 85 1015.2
20260502043031 52 213 3.0 9.0 0.00 0.00 0.00 84 1015.2
20260502041528 53 263 4.0 10.0 0.00 0.00 0.00 85 1015.3
20260502040029 53 239 3.0 7.0 0.00 0.00 0.00 83 1015.3
20260502034528 53 256 5.0 12.0 0.00 0.00 0.00 83 1015.4
20260502033022 53 241 3.0 9.0 0.00 0.00 0.00 83 1015.4
20260502031521 54 231 3.0 9.0 0.00 0.00 0.00 82 1015.4
20260502030019 54 237 4.0 9.0 0.00 0.00 0.00 83 1015.5
20260502024517 54 254 2.0 10.0 0.00 0.00 0.00 84 1015.5
20260502023016 54 252 3.0 9.0 0.00 0.00 0.00 85 1015.6
20260502021514 55 248 3.0 8.0 0.00 0.00 0.00 86 1015.6
20260502020013 55 252 3.0 7.0 0.00 0.00 0.00 87 1015.7
20260502014512 54 244 2.0 6.0 0.00 0.00 0.00 88 1015.7
20260502013009 53 195 0.0 3.0 0.00 0.00 0.00 89 1015.8
20260502011519 53 181 1.0 2.0 0.00 0.00 0.00 89 1016.0